Location: Franzen
(48.6167°N, 15.3833°E)
Time: 14:45:32
(UTC+00:00)

Transit 2A Rocket - Pass Details

Date: 07 August 2021
Orbit: 586 x 916 km, 66.7° (Epoch: 23 September)

Event Time Altitude Azimuth Distance (km) Brightness Sun altitude
Rises 19:55:50 0° 324° (NW) 3,269 10.1 -12.9°
Reaches altitude 10° 19:58:10 10° 324° (NW) 2,386 9.0 -13.2°
Maximum altitude 20:03:43 88° 235° (SW) 859 5.2 -13.8°
Enters shadow 20:07:57 20° 148° (SSE) 1,916 6.4 -14.3°
